Weather in Sevan

Armenia     40°32′55″N   44°57′26″E
temp.,
°C
wind,
m/s
gust,
m/s
humid.,
%
clouds,
%
prec.,
mm/h
press.,
hPa
HPBL,
m
18 april, sun
sun1801:00+7s116816 0.0 102013
04:00+7ssw226745 0.0 102017
07:00+7sw2268100 0.0 102034
10:00+13wsw6850100 0.0 10181274
13:00+15wsw674360 0.0 10171942
16:00+15wsw91043100 0.0 10151653
19:00+12wsw3657100 0.1 1016223
22:00+9w2277100 0.9 101945
19 april, mon
mon1901:00+8sw118098 0.6 101937
04:00+7wsw227833 0.6 101916
07:00+6wsw2276100 0.0 102037
10:00+13wsw5752100 0.0 10181208
13:00+14wsw6947100 0.0 10171898
16:00+14wsw5652100 0.0 10161303
19:00+13wsw475975 0.0 1017338
22:00+9sw2269100 0.0 101920
20 april, tue
tue2001:00+9sw2270100 0.0 101819
04:00+10ssw2264100 0.0 101722
07:00+10sw2364100 0.0 101741
10:00+15wsw4943100 0.0 1014907
13:00+17wsw81341100 0.0 10141704
16:00+17wsw7124052 0.0 10122050
19:00+15sw51051100 0.0 1011325
22:00+12sw365662 0.1 1013102
21 april, wed
wed2101:00+10sw226394 0.0 101431
04:00+9s226340 0.0 101426
07:00+9s226339 0.0 101529
10:00+17sw513360 0.0 10122591
13:00+19sw816328 0.0 10113395
16:00+18ssw8143599 0.3 10112748
19:00+15w917349 0.1 1012685
22:00+10se224841 0.1 101515
22 april, thu
thu2201:00+9ssw115112 0.0 101511
04:00+7nnw116211 0.0 101622
07:00+7n00779 0.0 101744
10:00+15wsw38330 0.0 10142144
13:00+17wsw610250 0.0 10142721
16:00+17w59270 0.0 10132513
19:00+11nne346530 0.0 1015210
22:00+7ne338476 0.0 1019439